This demonstration page uses our WeatherBlox Daily Observations layout. Learn more.

Left ArrowRight Arrow

53.62937, 11.41316

Hourly Observations for May 20, 2022

Temp ( °F °C ) Dew Point ( °F °C ) Humidity (%) Winds ( mph kmh ) Pressure ( in mb ) Visibility ( mi km ) Precip ( " mm )
12:20 am 00:20 Mostly Cloudy 63 17 61 16 94 94 W 5 7 30.03 1017 4 6 N/A
12:50 am 00:50 Cloudy 63 17 63 17 100 100 W 7 11 30.03 1017 3 5 N/A
1:20 am 01:20 Cloudy 63 17 63 17 100 100 W 7 11 30.03 1017 3 5 N/A
1:50 am 01:50 Mostly Cloudy 63 17 61 16 94 94 W 7 11 30.06 1018 4 6 N/A
2:20 am 02:20 Cloudy 63 17 61 16 94 94 W 6 9 30.06 1018 4 7 N/A
2:50 am 02:50 Mostly Cloudy 63 17 61 16 94 94 W 6 9 30.06 1018 4 6 N/A
3:20 am 03:20 Mostly Cloudy 61 16 59 15 94 94 WSW 6 9 30.06 1018 4 6 N/A
3:50 am 03:50 Mostly Cloudy 61 16 59 15 94 94 WSW 5 7 30.06 1018 4 7 N/A
4:20 am 04:20 Cloudy 61 16 57 14 88 88 W 12 19 30.06 1018 5 8 N/A
4:50 am 04:50 Cloudy 57 14 54 12 88 88 W 10 17 30.09 1019 30 48 N/A
5:20 am 05:20 Cloudy 55 13 54 12 94 94 W 9 15 30.09 1019 30 48 N/A
5:50 am 05:50 Mostly Cloudy 55 13 54 12 94 94 W 9 15 30.09 1019 6 9 N/A
6:20 am 06:20 Mostly Cloudy 55 13 54 12 94 94 W 6 9 30.09 1019 5 8 N/A
6:50 am 06:50 Mostly Cloudy 55 13 54 12 94 94 WSW 6 9 30.09 1019 30 48 N/A
7:20 am 07:20 Mostly Cloudy 55 13 52 11 88 88 WSW 7 11 30.12 1020 30 48 N/A
7:50 am 07:50 Mostly Cloudy 55 13 52 11 88 88 WSW 6 9 30.12 1020 30 48 N/A
8:20 am 08:20 Cloudy 57 14 52 11 82 82 W 8 13 30.12 1020 30 48 N/A
8:50 am 08:50 Partly Cloudy 57 14 50 10 77 77 W 10 17 30.12 1020 30 48 N/A
9:20 am 09:20 Mostly Cloudy 57 14 50 10 77 77 W 8 13 30.12 1020 30 48 N/A
9:50 am 09:50 Partly Cloudy 59 15 50 10 72 72 W 10 17 30.12 1020 30 48 N/A
10:20 am 10:20 Mostly Cloudy 61 16 52 11 72 72 W 10 17 30.12 1020 30 48 N/A
10:50 am 10:50 Mostly Cloudy 61 16 52 11 72 72 W 7 11 30.12 1020 30 48 N/A
11:20 am 11:20 Mostly Cloudy 61 16 50 10 68 68 W 7 11 30.12 1020 30 48 N/A
11:50 am 11:50 Mostly Cloudy 63 17 52 11 68 68 WNW 7 11 30.12 1020 30 48 N/A
12:20 pm 12:20 Mostly Cloudy 63 17 50 10 64 64 W 7 11 30.12 1020 30 48 N/A
12:50 pm 12:50 Partly Cloudy 64 18 52 11 64 64 VRB 3 6 30.09 1019 30 48 N/A
1:20 pm 13:20 Partly Cloudy 64 18 52 11 64 64 WNW 6 9 30.09 1019 30 48 N/A
1:50 pm 13:50 Partly Cloudy 64 18 52 11 64 64 W 6 9 30.06 1018 30 48 N/A
2:20 pm 14:20 Partly Cloudy 64 18 50 10 60 60 WSW 5 7 30.06 1018 30 48 N/A
2:50 pm 14:50 Mostly Sunny 66 19 52 11 60 60 VRB 3 6 30.06 1018 30 48 N/A
3:20 pm 15:20 Mostly Sunny 66 19 50 10 56 56 VRB 1 2 30.03 1017 30 48 N/A
3:50 pm 15:50 Mostly Sunny 68 20 52 11 56 56 VRB 3 6 30.00 1016 30 48 N/A
4:20 pm 16:20 Partly Cloudy 66 19 52 11 60 60 VRB 3 6 30.00 1016 30 48 N/A
4:50 pm 16:50 Partly Cloudy 66 19 52 11 60 60 VRB 3 6 29.97 1015 30 48 N/A
5:20 pm 17:20 Partly Cloudy 66 19 52 11 60 60 ESE 3 6 29.94 1014 30 48 N/A
5:50 pm 17:50 Mostly Sunny 66 19 54 12 64 64 E 5 7 29.94 1014 30 48 N/A
6:20 pm 18:20 Mostly Sunny 66 19 54 12 64 64 E 7 11 29.91 1013 30 48 N/A
6:50 pm 18:50 Mostly Sunny 64 18 54 12 68 68 E 8 13 29.88 1012 7 11 N/A
7:20 pm 19:20 Mostly Sunny 63 17 55 13 77 77 ENE 9 15 29.88 1012 7 11 N/A
7:50 pm 19:50 Partly Cloudy with Light Rain 61 16 55 13 83 83 E 8 13 29.85 1011 30 48 N/A
8:20 pm 20:20 Partly Cloudy with Light Rain 59 15 55 13 88 88 ENE 9 15 29.83 1010 30 48 N/A
8:50 pm 20:50 Mostly Cloudy with Light Rain 59 15 55 13 88 88 ENE 12 19 29.80 1009 30 48 N/A
9:20 pm 21:20 Mostly Sunny 59 15 55 13 88 88 ENE 9 15 29.77 1008 30 48 N/A
9:50 pm 21:50 Mostly Clear 59 15 57 14 94 94 ENE 9 15 29.74 1007 30 48 N/A
10:20 pm 22:20 Mostly Cloudy 59 15 57 14 94 94 ENE 10 17 29.74 1007 6 9 N/A
10:50 pm 22:50 Mostly Cloudy 57 14 57 14 100 100 NE 3 6 29.74 1007 3 5 N/A
11:20 pm 23:20 Mostly Cloudy 57 14 55 13 94 94 NNE 10 17 29.71 1006 6 9 N/A
11:50 pm 23:50 Mostly Cloudy 57 14 55 13 94 94 VRB 6 9 29.71 1006 5 8 N/A

Powered by AerisWeather